COSMOS 1275 DEB, 42203

Orbit data source: Space-Track

COSMOS 1275 DEB, 42203 is space debris in LEO originally from a launch on Thu, 04 Jun 1981 UTC launched from the Plesetsk Missile And Space Complex (PKMTR). Debris objects in space refer to the collection of defunct objects orbiting the Earth. Examples of debris include non-operational satellites, rocket bodies, and fragments generated from explosions, collisions, or faulty payload assembly.

Loading next visibility...
Identifier
42203, 1981-053TT
Orbit
LEO
Country
Flag of CISCIS
Related business
Manufacturer
Unknown
Mission
Spacecraft
Bus & Motor
Unknown
Mass
Unknown
Launch date (UTC)
1981-06-04 (45 years ago)
Launch vehicle
Unknown
Launch site
Plesetsk Missile And Space Complex (PKMTR)
Object type
Payload
Rocket body
Debris
Shape & HBR
Unknown shape, 0.1 m
Radar Cross Section
Small (<0.1 m²)

Expand to show TLE details & history
Last TLE update: 2 days ago

TLE from 2 days ago
0 COSMOS 1275 DEB
1 42203U 81053TT  25344.93547465  .00001928  00000-0  19010-2 0  9992
2 42203  82.9952  43.5328 0117149 235.9508 306.4392 13.75241913602571
Epoch: 2025-12-10T22:27Z
TLE epoch observation values (Epoch: 2025-12-10T22:27:05.009Z)
Latitude
-1.41451°
Longitude
167.03619°
Altitude
933.353 km
Speed
7.41 km/s
True Right ascension
14h 54m 49s
True Declination
-1° 24' 22"
Sunlit
Object was in daylight at epoch
Visualization orbit readout
Latitude
Unknown
Longitude
Unknown
Altitude
Unknown
Speed
Unknown
Apparent Right ascension
Unknown
Apparent Declination
Unknown
Sunlit
N/A
Visualization observer readout
Local Sidereal Time
04:53:57
Azimuth
Unknown
Elevation
Unknown
Doppler factor
Unknown
Orbital elements
Apogee altitude
1,064.133 km
Perigee altitude
891.782 km
Semi-major axis
7,356.095 km
Eccentricity
0.01171
Inclination
82.9952°
RAAN
43.5328°
Arg. of periapsis
235.9508°
True anomaly
305.34983°
Mean anomaly
306.4392°
Eccentric anomaly
305.89546°
Mean motion
3.44011 °/min
Orbital period
104.65 mins
BSTAR
0.001901
Loading maneuver chart data...
Computing Atmospheric mass density...
Loading historical data...
Loading historical data...
Loading historical data...
Loading historical data...
Loading historical data...
Loading historical data...
Loading historical data...

Documentation

Showing up to 5 results
|